This demonstration page uses our WeatherBlox Daily Observations layout. Learn more.

Left ArrowRight Arrow

34.02893, -84.19858

Hourly Observations for April 2, 2022

Temp ( °F °C ) Dew Point ( °F °C ) Humidity (%) Winds ( mph kmh ) Pressure ( in mb ) Visibility ( mi km ) Precip ( " mm )
12:53 am 00:53 Clear 43 6.1 37 2.8 80 80 Calm 30.08 1019 10 16 0.00 0.00
1:53 am 01:53 Clear 43 6.1 35 1.7 74 74 Calm 30.07 1018 10 16 0.00 0.00
2:53 am 02:53 Clear 41 5 35 1.7 79 79 Calm 30.06 1018 10 16 0.00 0.00
3:53 am 03:53 Clear 41 5 34 1.1 76 76 Calm 30.05 1018 10 16 0.00 0.00
4:53 am 04:53 Clear 39 3.9 35 1.7 86 86 Calm 30.05 1018 10 16 0.00 0.00
5:53 am 05:53 Clear 40 4.4 35 1.7 83 83 Calm 30.04 1017 10 16 0.00 0.00
6:53 am 06:53 Clear 40 4.4 36 2.2 86 86 Calm 30.07 1018 10 16 0.00 0.00
7:53 am 07:53 Sunny 45 7.2 33 0.6 63 63 Calm 30.10 1019 10 16 0.00 0.00
8:53 am 08:53 Sunny 48 8.9 33 0.6 56 56 VRB 7 11 30.10 1019 10 16 0.00 0.00
9:53 am 09:53 Sunny 52 11.1 34 1.1 50 50 VRB 3 6 30.10 1019 10 16 0.00 0.00
10:53 am 10:53 Sunny 56 13.3 35 1.7 46 46 undefined N/A 30.10 1019 10 16 0.00 0.00
11:53 am 11:53 Sunny 58 14.4 36 2.2 44 44 VRB 3 6 30.11 1020 10 16 0.00 0.00
12:53 pm 12:53 Sunny 61 16.1 36 2.2 39 39 WSW 5 7 30.11 1020 10 16 0.00 0.00
1:12 pm 13:12 Sunny 62 16.7 37 2.8 40 40 SSW 5 7 30.09 1019 10 16 0.00 0.00
1:53 pm 13:53 Sunny 62 16.7 36 2.2 38 38 VRB 3 6 30.08 1019 10 16 0.00 0.00
2:53 pm 14:53 Mostly Sunny 63 17.2 36 2.2 37 37 Calm 30.04 1017 10 16 0.00 0.00
3:53 pm 15:53 Mostly Cloudy 64 17.8 37 2.8 37 37 N 3 6 30.02 1017 10 16 0.00 0.00
4:53 pm 16:53 Cloudy 63 17.2 36 2.2 37 37 Calm 29.99 1016 10 16 0.00 0.00
5:53 pm 17:53 Mostly Sunny 65 18.3 35 1.7 33 33 SE 5 7 29.95 1014 10 16 0.00 0.00
6:53 pm 18:53 Sunny 64 17.8 37 2.8 37 37 VRB 3 6 29.96 1015 10 16 0.00 0.00
7:53 pm 19:53 Sunny 61 16.1 38 3.3 43 43 SSE 5 7 29.96 1015 10 16 0.00 0.00
8:53 pm 20:53 Clear 55 12.8 39 3.9 55 55 S 5 7 29.98 1015 10 16 0.00 0.00
9:53 pm 21:53 Clear 54 12.2 40 4.4 59 59 Calm 30.00 1016 10 16 0.00 0.00
10:53 pm 22:53 Clear 54 12.2 39 3.9 57 57 WNW 5 7 30.01 1016 10 16 0.00 0.00
11:53 pm 23:53 Clear 52 11.1 40 4.4 64 64 SW 3 6 30.00 1016 10 16 0.00 0.00

Powered by AerisWeather